CAPE
0 0 0 0 0 0 0 0 0 0 0 0 0 0 0 0 0 0 0 0 0 0 0 0 0 0 0 0 0 0 1 2 3 6 8 3 8 17
0 0 0 0 0 0 0 0 0 0 0 0 0 0 0 0 0 0 0 0 0 0 0 0 0 0 0 0 0 0 0 3 6 5 3 3 4 10
0 0 0 0 0 0 0 0 0 0 0 0 0 0 0 0 0 0 0 0 0 0 0 0 0 0 0 0 0 0 2 1 2 3 3 4 3 6
0 0 0 0 0 0 0 0 0 0 0 0 0 0 0 0 0 0 0 0 0 0 0 0 0 0 0 0 0 0 0 0 0 0 0 2 3 3
0 0 0 0 0 0 0 0 0 0 0 0 0 0 0 0 0 0 0 0 0 0 0 0 0 0 0 0 0 0 0 0 0 0 0 1 1 0
0 0 0 0 0 0 0 0 0 0 0 0 0 0 0 0 0 0 0 0 0 0 0 0 0 0 0 0 0 0 0 0 0 0 0 0 0 0
0 0 0 0 0 0 0 0 0 0 0 0 0 0 0 0 0 0 0 0 0 0 0 0 0 0 0 0 0 0 0 0 0 0 0 0 0 0
0 0 0 0 0 0 0 0 0 0 0 0 0 0 0 0 0 0 0 0 0 0 0 0 0 0 0 0 0 0 0 0 0 0 0 0 0 0
0 0 0 0 0 0 0 0 0 0 0 0 0 0 0 0 0 0 0 0 0 0 0 0 0 0 0 0 0 0 0 0 0 0 0 0 0 0
0 0 0 0 0 0 0 0 0 0 0 0 0 0 0 0 0 0 0 0 0 0 0 0 0 0 0 0 0 0 0 0 0 0 0 0 0 0
0 0 0 0 0 0 0 0 0 0 0 0 0 0 0 0 0 0 0 0 0 0 0 0 0 0 0 0 0 0 0 0 0 0 0 0 0 0
0 0 0 0 0 0 0 0 0 0 0 0 0 0 0 0 0 0 0 0 0 0 0 0 0 0 0 0 0 0 0 0 0 0 0 0 0 0
0 0 0 0 0 0 0 0 0 0 0 0 0 0 0 0 0 0 0 0 0 0 0 0 0 0 0 0 0 0 0 0 0 0 0 0 2 1
0 0 0 0 0 0 0 0 0 0 0 0 0 0 0 0 0 0 0 0 0 0 0 0 0 0 0 0 0 0 0 0 0 0 0 0 0 5
0 0 0 0 0 0 0 0 0 0 0 0 0 0 0 0 0 0 0 0 0 0 0 0 0 0 0 0 0 0 0 0 0 0 0 0 0 12
0 0 0 0 0 0 0 0 0 0 0 0 0 0 0 0 0 0 0 0 0 0 0 0 0 0 0 0 0 0 0 0 0 0 0 0 0 8
0 0 0 1 2 1 1 0 0 0 0 0 0 0 0 0 0 0 0 0 0 0 0 0 0 0 0 0 0 0 0 0 0 0 0 0 0 1
1 3 2 4 4 2 1 1 1 0 0 0 0 0 0 0 0 0 0 0 0 0 0 0 0 0 0 0 0 0 0 0 0 0 0 0 0 0
2 4 3 2 3 3 1 1 1 0 0 0 0 0 0 0 0 0 0 0 0 0 0 0 0 0 0 0 0 0 0 0 0 0 0 0 0 0
2 2 2 2 2 2 1 1 0 0 0 0 0 0 0 0 0 0 0 0 0 0 0 0 0 0 0 0 0 0 0 0 0 0 0 0 0 0
3 1 1 1 1 1 1 0 0 0 0 0 0 0 0 0 0 0 0 0 0 0 0 0 0 0 0 0 0 0 0 0 0 0 0 0 0 0
3 2 1 0 1 0 0 0 0 0 0 0 0 0 0 0 0 0 0 0 0 0 0 0 0 0 0 0 0 0 0 0 0 1 0 0 0 0
2 2 1 0 0 1 0 0 0 0 0 0 0 0 0 0 0 0 0 0 0 0 0 0 0 0 0 0 0 0 0 0 1 0 0 0 0 0
CIN
-0 -0 -0 -0 -0 -0 -0 -0 -0 -0 -0 -0 -0 -0 -0 -0 -0 -0 -0 -0 -0 -0 -0 -0 -0 -0 -0 -0 -0 -0 -0 -1 -0 -0 -0 -1 -1 -1
-0 -0 -0 -0 -0 -0 -0 -0 -0 -0 -0 -0 -0 -0 -0 -0 -0 -0 -0 -0 -0 -0 -0 -0 -0 -0 -0 -0 -0 -0 -0 -0 -0 -0 -1 -1 -1 -0
-0 -0 -0 -0 -0 -0 -0 -0 -0 -0 -0 -0 -0 -0 -0 -0 -0 -0 -0 -0 -0 -0 -0 -0 -0 -0 -0 -0 -0 -0 -0 -0 -0 -0 -1 -0 -0 -0
-0 -0 -0 -0 -0 -0 -0 -0 -0 -0 -0 -0 -0 -0 -0 -0 -0 -0 -0 -0 -0 -0 -0 -0 -0 -0 -0 -0 -0 -0 -0 -0 -0 -0 -0 -0 -0 -0
-0 -0 -0 -0 -0 -0 -0 -0 -0 -0 -0 -0 -0 -0 -0 -0 -0 -0 -0 -0 -0 -0 -0 -0 -0 -0 -0 -0 -0 -0 -0 -0 -0 -0 -0 -0 -0 -0
-0 -0 -0 -0 -0 -0 -0 -0 -0 -0 -0 -0 -0 -0 -0 -0 -0 -0 -0 -0 -0 -0 -0 -0 -0 -0 -0 -0 -0 -0 -0 -0 -0 -0 -0 -0 -0 -0
-0 -0 -0 -0 -0 -0 -0 -0 -0 -0 -0 -0 -0 -0 -0 -0 -0 -0 -0 -0 -0 -0 -0 -0 -0 -0 -0 -0 -0 -0 -0 -0 -0 -0 -0 -0 -0 -0
-0 -0 -0 -0 -0 -0 -0 -0 -0 -0 -0 -0 -0 -0 -0 -0 -0 -0 -0 -0 -0 -0 -0 -0 -0 -0 -0 -0 -0 -0 -0 -0 -0 -0 -0 -0 -0 -0
-0 -0 -0 -0 -0 -0 -0 -0 -0 -0 -0 -0 -0 -0 -0 -0 -0 -0 -0 -0 -0 -0 -0 -0 -0 -0 -0 -0 -0 -0 -0 -0 -0 -0 -0 -0 -0 -0
-0 -0 -0 -0 -0 -0 -0 -0 -0 -0 -0 -0 -0 -0 -0 -0 -0 -0 -0 -0 -0 -0 -0 -0 -0 -0 -0 -0 -0 -0 -0 -0 -0 -0 -0 -0 -0 -0
-0 -0 -0 -0 -0 -0 -0 -0 -0 -0 -0 -0 -0 -0 -0 -0 -0 -0 -0 -0 -0 -0 -0 -0 -0 -0 -0 -0 -0 -0 -0 -0 -0 -0 -0 -0 -0 -0
-0 -0 -0 -0 -0 -0 -0 -0 -0 -0 -0 -0 -0 -0 -0 -0 -0 -0 -0 -0 -0 -0 -0 -0 -0 -0 -0 -0 -0 -0 -0 -0 -0 -0 -0 -0 -0 -0
-0 -0 -0 -0 -0 -0 -0 -0 -0 -0 -0 -0 -0 -0 -0 -0 -0 -0 -0 -0 -0 -0 -0 -0 -0 -0 -0 -0 -0 -0 -0 -0 -0 -0 -0 -0 -8 -5
-0 -0 -0 -0 -0 -0 -0 -0 -0 -0 -0 -0 -0 -0 -0 -0 -0 -0 -0 -0 -0 -0 -0 -0 -0 -0 -0 -0 -0 -0 -0 -0 -0 -0 -0 -0 -0 -3
-0 -0 -0 -0 -0 -0 -0 -0 -0 -0 -0 -0 -0 -0 -0 -0 -0 -0 -0 -0 -0 -0 -0 -0 -0 -0 -0 -0 -0 -0 -0 -0 -0 -0 -0 -0 -2 -8
-0 -0 -0 -0 -0 -0 -0 -0 -0 -0 -0 -0 -0 -0 -0 -0 -0 -0 -0 -0 -0 -0 -0 -0 -0 -0 -0 -0 -0 -0 -0 -0 -0 -0 -0 -0 -0 -2
-0 -0 -0 -0 -0 -0 -0 -0 -0 -0 -0 -0 -0 -0 -0 -0 -0 -0 -0 -0 -0 -0 -0 -0 -0 -0 -0 -0 -0 -0 -0 -0 -0 -0 -0 -0 -0 -0
-0 -0 -0 -0 -0 -0 -0 -0 -0 -0 -0 -0 -0 -0 -0 -0 -0 -0 -0 -0 -0 -0 -0 -0 -0 -0 -0 -0 -0 -0 -0 -0 -0 -0 -0 -0 -0 -0
-0 -0 -0 -0 -0 -0 -0 -0 -0 -0 -0 -0 -0 -0 -0 -0 -0 -0 -0 -0 -0 -0 -0 -0 -0 -0 -0 -0 -0 -0 -0 -0 -0 -0 -0 -0 -0 -0
-0 -0 -0 -0 -0 -0 -0 -0 -0 -0 -0 -0 -0 -0 -0 -0 -0 -0 -0 -0 -0 -0 -0 -0 -0 -0 -0 -0 -0 -0 -0 -0 -0 -0 -0 -0 -0 -0
-0 -0 -0 -0 -0 -0 -0 -0 -0 -0 -0 -0 -0 -0 -0 -0 -0 -0 -0 -0 -0 -0 -0 -0 -0 -0 -0 -0 -0 -0 -0 -0 -0 -0 -0 -0 -0 -0
-0 -0 -0 -0 -0 -0 -0 -0 -0 -0 -0 -0 -0 -0 -0 -0 -0 -0 -0 -0 -0 -0 -0 -0 -0 -0 -0 -0 -0 -0 -0 -0 -0 -3 -0 -0 -0 -0
-0 -0 -0 -0 -0 -0 -0 -0 -0 -0 -0 -0 -0 -0 -0 -0 -0 -0 -0 -0 -0 -0 -0 -0 -0 -0 -0 -0 -0 -0 -0 -0 -6 -0 -6 -0 -0 -0
Wind_Speed
9 9 11 12 14 15 16 17 17 19 18 15 18 15 18 20 19 20 21 15 17 19 23 26 27 28 28 30 30 30 30 30 31 31 30 30 30 31
7 8 8 11 12 13 14 15 16 16 16 18 17 16 19 22 19 21 23 18 15 16 19 23 25 25 27 29 28 29 29 30 30 31 31 30 30 30
5 6 7 9 10 11 12 14 14 15 15 14 16 16 18 19 20 24 25 20 18 15 17 21 21 23 24 26 28 27 29 30 31 31 30 29 28 29
3 6 6 7 8 9 11 12 12 14 15 16 17 18 19 19 20 21 20 21 20 14 15 17 18 21 21 23 26 26 28 29 30 31 30 28 27 27
4 4 4 4 7 8 10 11 13 13 14 15 15 17 17 18 20 22 19 18 19 14 12 14 17 17 17 18 22 24 28 29 30 30 29 27 27 26
5 5 5 4 5 7 9 10 11 12 13 15 15 15 17 18 18 18 22 23 23 22 19 22 19 13 12 15 18 21 26 29 29 28 28 27 26 25
7 7 6 6 5 7 8 10 11 12 12 13 14 16 16 18 20 22 22 24 24 22 23 26 24 21 16 13 15 19 23 28 28 26 27 25 25 24
10 9 8 7 7 8 10 12 12 10 11 14 16 17 18 18 20 21 23 23 24 22 25 24 24 23 24 13 14 18 23 25 26 25 25 26 24 22
12 11 11 10 9 10 11 12 13 15 15 15 15 17 18 19 19 20 21 23 23 22 21 23 24 24 24 18 15 17 21 22 23 23 23 24 24 22
14 14 14 13 11 11 11 12 13 14 14 15 15 15 17 19 18 19 20 20 19 18 16 21 22 24 25 24 14 15 19 19 20 20 20 22 23 22
16 16 16 16 14 12 12 12 13 14 14 14 14 14 15 18 18 19 17 20 21 21 21 20 21 24 23 21 15 16 17 17 17 18 19 19 20 20
18 18 17 16 15 14 13 12 12 12 10 12 14 14 14 16 14 15 15 20 21 21 21 23 24 24 22 19 25 25 23 23 18 18 19 18 18 19
20 19 19 18 17 15 14 12 11 10 10 11 13 13 13 13 11 11 12 16 19 19 20 21 22 22 22 24 23 23 26 24 22 23 27 22 21 19
22 20 19 18 16 17 15 13 12 11 12 12 13 13 11 11 10 9 10 14 17 17 19 20 19 21 22 23 23 24 25 23 23 26 27 26 24 24
21 21 19 17 16 15 15 17 15 13 13 13 14 13 11 11 12 11 13 16 16 15 14 14 16 18 21 22 23 23 24 24 27 28 28 24 23 24
21 20 18 17 16 19 15 15 16 17 14 14 12 12 12 11 13 14 13 13 16 17 15 12 14 16 17 19 20 21 22 24 27 28 26 23 22 23
20 20 19 18 17 17 18 17 16 16 14 14 14 12 13 14 14 13 14 15 18 17 17 14 13 15 17 17 16 19 23 25 27 27 25 23 21 23
22 23 23 21 20 20 21 20 18 17 16 14 14 11 13 14 15 13 14 16 15 17 18 18 19 21 20 18 20 20 23 25 25 25 24 23 20 19
24 26 26 25 25 24 23 23 22 19 17 15 14 13 13 13 13 13 14 13 14 14 16 16 17 18 18 21 18 20 22 21 23 24 23 21 20 15
27 29 28 26 26 25 24 23 23 22 17 16 15 14 13 13 14 14 14 13 13 12 14 15 14 14 16 18 19 18 18 18 21 22 22 21 18 14
30 30 27 27 27 26 25 24 23 21 20 18 18 16 14 13 14 14 13 12 11 11 12 15 14 13 15 17 17 18 18 14 16 18 19 21 21 18
32 32 32 31 28 26 25 23 21 21 21 19 17 15 14 13 14 12 12 11 11 11 11 12 11 14 14 14 15 18 19 17 15 16 16 15 18 20
33 33 32 32 31 29 26 24 23 20 21 19 18 17 15 14 14 12 11 10 10 8 10 12 13 13 14 15 15 17 16 17 18 20 19 13 11 10
Wind_Direction
14 19 19 22 23 22 24 22 19 15 15 16 10 14 4 359 360 358 358 6 2 2 1 358 357 358 358 355 356 358 2 1 1 1 1 1 1 359
9 11 14 18 21 21 21 20 21 17 11 18 11 13 5 355 359 357 356 2 2 3 5 3 1 3 2 359 1 3 5 6 6 5 4 4 3 0
359 4 5 13 15 19 20 19 18 15 8 7 8 7 3 3 359 351 350 357 5 12 9 5 9 8 8 6 6 10 9 8 7 7 6 5 4 2
328 350 353 6 7 11 14 13 12 13 8 2 3 3 0 360 358 355 358 356 0 10 10 10 11 10 11 12 13 15 13 11 9 7 8 8 6 4
291 316 323 342 352 359 2 5 6 7 8 5 1 1 1 1 358 355 357 358 0 12 15 12 7 10 11 14 17 16 13 11 9 9 9 9 8 7
277 296 306 300 324 343 350 355 1 1 2 360 360 1 0 360 358 357 353 352 352 354 360 360 0 5 13 15 17 16 12 11 10 11 12 12 11 10
270 283 292 286 304 322 335 341 349 350 353 356 356 357 359 356 353 352 350 348 348 354 353 352 355 1 6 15 19 16 13 11 13 13 13 14 13 12
264 272 282 284 291 317 329 336 338 342 345 349 351 352 353 354 353 351 347 347 346 353 352 353 354 357 1 17 17 15 13 14 15 16 17 17 15 13
269 270 277 282 281 299 313 322 331 336 342 343 344 348 350 352 352 350 349 344 344 347 352 353 356 356 0 13 14 13 13 15 15 16 18 17 16 15
272 268 269 275 269 281 292 301 310 319 325 333 337 343 349 351 356 352 347 346 349 350 359 352 356 355 354 358 11 15 11 13 13 14 15 16 17 18
276 273 268 273 266 264 283 285 301 312 328 334 341 346 347 347 348 346 346 345 346 350 357 355 357 355 358 1 14 12 9 13 12 11 11 15 17 20
283 275 263 265 261 256 270 277 287 296 312 323 328 332 336 338 347 349 346 342 343 346 352 346 349 356 359 8 1 4 11 13 16 12 16 20 19 21
284 277 272 259 251 247 255 262 281 291 301 315 326 334 338 344 348 353 350 345 342 344 350 352 350 352 354 354 2 5 7 11 15 19 22 26 22 22
283 285 279 262 262 257 259 280 286 292 301 306 317 323 328 341 343 346 348 349 345 347 346 351 351 351 351 354 358 3 7 12 17 20 21 21 23 26
290 288 290 276 268 258 258 272 288 284 300 303 310 315 326 338 350 354 351 344 341 348 351 357 357 355 353 353 356 1 4 11 14 16 18 22 23 30
291 295 291 284 276 270 262 271 275 282 285 296 306 315 323 334 338 339 340 343 338 339 348 357 359 355 355 354 357 1 5 9 10 13 17 23 26 33
288 291 287 284 277 272 274 275 274 280 279 284 294 298 307 320 328 338 340 340 332 334 342 351 357 358 354 353 357 2 2 5 7 10 16 20 27 32
284 282 281 278 275 269 272 271 269 271 276 278 286 292 299 304 310 321 329 330 333 328 332 339 342 344 349 356 359 359 1 3 9 12 16 19 23 28
281 281 279 275 276 272 273 271 271 267 276 276 278 287 295 302 306 311 318 328 330 331 329 335 340 345 346 348 1 6 4 10 11 13 17 21 22 31
283 283 281 279 277 274 271 269 271 271 267 271 276 281 288 293 300 303 311 315 323 331 330 333 337 344 347 348 352 0 10 12 14 16 19 24 29 36
283 282 281 281 279 276 272 271 268 265 265 266 272 275 280 286 297 300 304 308 316 328 331 330 341 355 351 351 355 360 9 22 20 18 20 22 25 36
286 283 282 282 278 276 272 270 269 266 261 260 265 270 276 280 291 294 298 304 311 319 330 340 349 350 350 353 355 356 2 13 19 21 27 35 31 27
288 284 281 279 277 275 271 265 265 267 264 259 263 268 272 277 287 290 294 301 307 305 318 327 334 343 346 349 353 357 5 9 13 12 18 40 47 44